Home > Weather > Pullman > Past weeks

Flag for USA Weather for the Past 2 Weeks in Pullman, Washington, USA

Now
59 °F

Broken clouds.


Feels Like: 56 °F
Forecast: 39 / 59 °F
Wind: 16 mph from West

Location: Pullman / Moscow Regional Airport

Current Time: Apr 28, 2016 at 1:51:18 PM

Latest Report: Apr 28, 2016 at 12:53 PM


Visibility: 10 mi

Pressure: 29.98 "Hg (27.55 "Hg at 715m altitude)

Humidity: 54%

Dew Point: 42 °F

Location of PullmanLocation

Historic Weather in Pullman — Graph

°F

Pullman Temperature Yesterday

Maximum temperature yesterday: 59 °F (at 1:53 PM)
Minimum temperature yesterday: 43 °F (at 3:53 AM)
Average temperature yesterday: 51 °F

High & Low Weather Summary for the Past Weeks

 TemperatureHumidityPressure
High82 °F (Apr 20, 4:53 PM)93% (Apr 14, 6:53 AM)30.42 "Hg (Apr 14, 6:53 AM)
Low35 °F (Apr 25, 5:53 AM)11% (Apr 18, 3:53 PM)29.53 "Hg (Apr 22, 3:53 AM)
Average53 °F60%30.00 "Hg
* Reported Apr 13 11:04 AM — Apr 28 11:53 AM, Pullman, Weather by CustomWeather, © 2016

Note: Actual official high and low records may vary slightly from our data, if they occured in-between our weather recording intervals... More about our weather records

Advertising

Pullman Weather History for the Previous 24 Hours

Scroll right to see more
 ConditionsComfort  
Time TempWeatherWind HumidityBarometerVisibility
11:53 AM
Thu, Apr 28
55 °FPartly sunny.8 mph59%30.00 "Hg10 mi
10:53 AM54 °FMostly cloudy.8 mph64%30.01 "Hg10 mi
9:53 AM52 °FPartly sunny.8 mph66%30.01 "Hg10 mi
8:53 AM51 °FSunny.7 mph71%30.01 "Hg10 mi
7:53 AM49 °FPassing clouds.8 mph74%30.00 "Hg9 mi
6:53 AM48 °FPartly sunny.No wind74%29.99 "Hg10 mi
5:53 AM45 °FOvercast.No wind76%29.98 "Hg10 mi
4:53 AM45 °FOvercast.No wind76%29.97 "Hg10 mi
3:53 AM46 °FOvercast.No wind73%29.96 "Hg10 mi
2:53 AM47 °FOvercast.3 mph74%29.95 "Hg10 mi
1:53 AM47 °FOvercast.3 mph74%29.95 "Hg10 mi
12:53 AM47 °FOvercast.5 mph74%29.94 "Hg10 mi
11:53 PM
Wed, Apr 27
48 °FMostly cloudy.3 mph71%29.93 "Hg10 mi
10:53 PM49 °FOvercast.7 mph66%29.93 "Hg10 mi
9:53 PM49 °FMostly cloudy.7 mph66%29.93 "Hg10 mi
8:53 PM51 °FOvercast.13 mph61%29.92 "Hg10 mi
7:53 PM53 °FOvercast.16 mph56%29.90 "Hg10 mi
6:53 PM56 °FPartly sunny.17 mph53%29.89 "Hg10 mi
5:53 PM57 °FPassing clouds.14 mph53%29.90 "Hg10 mi
4:53 PM59 °FScattered clouds.12 mph51%29.90 "Hg10 mi
3:53 PM58 °FSunny.13 mph50%29.90 "Hg10 mi
2:53 PM58 °FSunny.14 mph51%29.90 "Hg10 mi
1:53 PM59 °FSunny.14 mph44%29.90 "Hg10 mi
Weather by CustomWeather, © 2016

See weather overviewHow to use our weather pages